Погода Фролово

Погода Фролово : погода сейчас, прогноз погоды и архив. Всё, что Вы хотите узнать о погоде Фролово!

Поиск расширенной информации на нашем сайте:

Другие новости

Новости СМИ2

Главная страница сайта

Новости сайта

02.10.2013

Напоминаем, что на нашем новом сайте вы можете получить высокодетализированные прогнозы погоды по пунктам России, СНГ и мира (включающие важные для авиации метеовеличины, такие как направление и скорость ветра, видимость, явления погоды, количество и форма облачности, нижняя и верхняя граница облачности), а также ознакомиться с разнообразными материалами по авиационной метеорологии и подборкой полезных ссылок на эту тему.

Сайт Метеоцентр.Азия посвящён разработке технологий оптимизации авиаметеорологического обслуживания, включая проектирование и перспективное создание нескольких автоматизированных авиаметеорологических систем:
- система выпуска высокодетальных прогностических карт явлений погоды для нижнего воздушного пространства по России и ближнему зарубежью;
- система верификации прогнозов TAF (выпускаемых синоптиками официальных АМСГ РФ и ближнего зарубежья) и AUTOTAF (выпускаемых сайтом Метеоцентр.Азия) - выявление ошибок, онлайн-сопоставление с фактической погодой METAR, автоматическое внесение коррективов в прогнозы при резком отклонении фактической погоды от прогноза, подсчёт оправдываемости прогнозов по элементам и в целом;
- система обработки, анализа и отображения авиаметеорологической информации для применения провайдерами метеорологической информации.


Погода Фролово - сегодня

Время (UTC), дата Ветер
(°,м/с) 
Видим.   Явления Облачность Т
(°С)
Тd
(°С)
f(%) Тe
(°С)
Pmin
(гПа)
dP
(гПа)
Po
(мм)
O2
(г/м3)
Тmin Tmax R s Состояние
почвы
18 19.06.17 тихо ()   20000 м    ясно 
+17.6 +10 61 +19  1009  0.5  746  281           
21 19.06.17 тихо ()   20000 м    ясно 
+12.9 +9.5 80 +14  1008.7  -0.6  746  285           
00 20.06.17 тихо ()   20000 м    ясно 
+11.8 +8.9 82 +12  1007.9  -0.8  745  286           
03 20.06.17 220 (ЮЗ) 10 км    8/0 средняя 
[Ac und]
+15.9 +10.4 70 +19  1007.4  -0.3  745  282  +11.5        сухая 
06 20.06.17 310 (СЗ) 10 км    6/4 1000 м средняя 
[Cu med, cong|Ac lent]
+21.6 +13.5 60 +28  1007.2  0.1  745  276           
09 20.06.17 300 (СЗ) 10 км    1/1 1000 м 
[Cu hum]
+26.8 +10.4 36 +29  1006.6  -0.3  745  271           
12 20.06.17 310 (СЗ) 10 км    3/3 1000 м 
[Cu med, cong]
+27.9 +7.9 28 +28  1005.9  -0.7  744  271           
15 20.06.17 300 (СЗ) 10 км    3/3 1000 м 
[Cu med, cong]
+27 +7.8 30 +27  1005.7  -0.2  744  272    +28.1       
18 20.06.17 тихо ()   20000 м    ясно 
+18.2 +12.1 68 +22  1006.8  0.7  745  279           
21 20.06.17 тихо ()   20000 м    ясно 
+14.6 +11.3 81 +18  1006.7  -0.3  744  283           
00 21.06.17 040 (СВ) 20000 м    ясно 
+13.4 +10 80 +16  1006.3  -0.4  744  284           
03 21.06.17 190 (Ю) 10 км    3/3 1000 м 
[Cu med, cong]
+19.1 +11.3 61 +24  1005.4  -0.6  744  278  +12.3        сухая 
06 21.06.17 240 (ЮЗ) 5{10}  10 км    3/3 1000 м 
[Cu hum]
+25.7 +12.3 43 +30  1004.3  -0.8  743  271           
09 21.06.17 270 (З) 10 км    6/6 600 м 
[Cu hum]
+27.9 +11.3 36 +31  1003.3  -0.9  742  269           
12 21.06.17 260 (З) 4{11}  10 км    6/6 600 м 
[Cu med, cong]
+29.6 +11 32 +32  1002  -1.3  741  268           
15 21.06.17 280 (З) 10 км    4/4 600 м 
[Cu med, cong]
+28.5 +9.5 30 +29  1001.5  -0.5  741  269    +30       
18 21.06.17 тихо () {13}  20000 м  {гроза, ливн. осадки}  9/9 600 м 
[Sc]
+19 +13.8 72 +26  1003.1  1.1  742  277           
21 21.06.17 тихо ()   20000 м    6/0 верхняя 
[Cs]
+16.9 +13.3 79 +23  1003.9  0.7  743  279           
00 22.06.17 350 (С) 20000 м    10/0 верхняя 
[Cs]
+16.8 +13.6 81 +25  1003.5  -0.4  742  279           
03 22.06.17 350 (С) 10 км    3/0 верхняя 
[Ci fib]
+18.5 +14.7 79 +27  1004.3  0.8  743  277  +15.2    0.0    сухая 
06 22.06.17 330 (СЗ) 10 км    6/6 600 м 
[Cu hum]
+22.2 +12.7 55 +27  1005.4  1.3  744  275           
09 22.06.17 310 (СЗ) 10 км    6/6 600 м 
[Cu hum]
+23.9 +7.5 35 +24  1006.4  745  275           
12 22.06.17 310 (СЗ) 3{10}  10 км    8/8 600 м 
[Cu hum]
+25.2 +4 25 +25  1006.5  0.2  745  274           
15 22.06.17 310 (СЗ) 2{10}  10 км    3/3 600 м 
[Cu hum]
+23 +4.6 30 +23  1007.3  0.6  745  276    +25.3       
18 22.06.17 350 (С) 20000 м    ясно 
+16.1 +5.4 49 +17  1010  2.3  747  283           
Время (UTC), дата Ветер
(°,м/с) 
Видим.   Явления Облачность Т
(°С)
Тd
(°С)
f(%) Тe
(°С)
Pmin
(гПа)
dP
(гПа)
Po
(мм)
O2
(г/м3)
Тmin Tmax R s Состояние
почвы

Для получения пояснительной информации подведите курсор к названию столбца.

ПОГОДА Фролово - архив

Всё, что Вы хотите узнать о погоде Фролово - удобно и подробно!

Выберите нужную дату (начиная с 1 января 2015* года) и нажмите кнопку "Найти".
Будут отображены архивные сводки погоды по пункту Фролово, начиная с указанной даты.


Отображать данные в формате CSV (для использования в таблицах Excel)


Внимание! Наш архив погоды предназначен исключительно для личного некоммерческого использования в познавательных целях. Если Вам необходимы официальные справки о состоянии погоды (для производственных, юридических, коммерческих и т.п. целей), обращайтесь в органы Росгидромета.

*Примечание: данная дата относится к архиву по метеостанциям СССР (Россия, СНГ, Балтия).
Архив по метеостанциям Зарубежной Европы и Азии (кроме Китая) хранится 10 дней, по другим регионам земного шара (Китай, Африка, Америка, Австралия, Океания) - 1 день.

Фролово - район местоположения метеостанции


Название, широта, долгота, высота метеостанции:
Фролово 49.8°ш. 43.7°д. 119 м над ур. моря [Российская Федерация]

Дополнительная информация

В oтличие oт бoльшинства пoгoдных сайтoв мы публикуем пoдрoбную метеoинфoрмацию в детальнoм прoфессиoнальнoм фoрмате.

Характеристики температуры и влажнoсти вoздуха измеряются на высoте 2 м в тени вдали oт зданий и деревьев.
Скoрoсть ветра измеряется на высoте 10 м (на урoвне рoста челoвека скoрoсть ветра ниже в 1.5-2 раза). Если метеoстанция нахoдится в гoрoде или в лесу, тo скoрoсть ветра занижена на 2-4 м/с пo сравнению с oткрытым местoм. Скoрoсть ветра над акватoриями крупных рек и oзёр, а также на вершинах хoлмoв на 2-5 м/с выше, чем в oбычных услoвиях.
Атмoсфернoе давление в разных тoчках местнoсти мoжет значительнo oтличаться oт давления на метеoстанции, в зависимoсти oт услoвий рельефа (при пoдъёме на 10 м давление пoнижается примернo на 1 мм рт.ст.).